Lexington Weather

Lexington, Massachusetts, USA

71°F
9/22/2021 2:05pm 
  • Lexington Conditions: Light rain, Mist, Overcast
  • Temperature: 71.4°F / 21.9°CColder 3.4°F than last hour.
  • Dew Point: 68.9°FIncreased 0.7°Fsince last hour.
  • Relative Humidity: 92%Increased 12.0% since last hour.
  • Wind: Wind from WSW WSW 3 mph, 10-min avg: 3 mph, gust: 11 mph
  • Barometer: 30.09 in Steady
  • Visibility: 2 miles
  • Rain Today: 0.00 in
  •   

Regional Weather Roundup
for Boston / Norton, MA

        
000
ASUS41 KBOX 161004
RWRBOX

REGIONAL WEATHER ROUNDUP
NATIONAL WEATHER SERVICE BOSTON/NORTON MA
600 AM EDT THU SEP 16 2021

NOTE:  "FAIR" INDICATES FEW OR NO CLOUDS BELOW 12,000 FEET WITH NO 
SIGNIFICANT WEATHER AND/OR OBSTRUCTIONS TO VISIBILITY.

MAZALL-161100-
EASTERN MASSACHUSETTS
  
CITY           SKY/WX    TMP DP  RH WIND       PRES   REMARKS
BOSTON         TSTM      70  62  76 NW10      30.17R                  
BEVERLY        TSTM      66  40  38 NW5       30.16R                  
LAWRENCE       LGT RAIN  67  65  93 CALM      30.17R                  
BEDFORD        TSTM      66  66 100 E5        30.13R FOG              
BLUE HILL      NOT AVBL                                               
NORWOOD        CLOUDY    69  64  84 VRB5      30.15R                  
MARSHFIELD     CLOUDY    70  66  88 VRB7      30.13R                  
PLYMOUTH       CLOUDY    71  68  90 N8        30.12R                  
TAUNTON        LGT RAIN  71  68  90 NW3       30.12R                  
NEW BEDFORD    CLOUDY    73  71  93 N3        30.10R                  
$$

MAZALL-161100-
CAPE COD AND THE ISLANDS
  
CITY           SKY/WX    TMP DP  RH WIND       PRES   REMARKS
FALMOUTH       CLOUDY    72  72 100 SW3       30.11R                  
HYANNIS        CLOUDY    73  72  96 S3        30.11R                  
CHATHAM        CLOUDY    72  71  97 VRB3      30.13R                  
PROVINCETOWN   CLOUDY    69  68  96 N6        30.14R                  
NANTUCKET      MOCLDY    73  71  93 S7        30.12R                  
MARTHAS VNYRD  CLOUDY    71  71 100 SW6       30.11R FOG              
$$
 
MAZALL-161100-
CENTRAL AND WESTERN MASSACHUSETTS
  
CITY           SKY/WX    TMP DP  RH WIND       PRES   REMARKS
WORCESTER      LGT RAIN  64  62  93 NW6       30.19R                  
FITCHBURG      LGT RAIN  66  65  96 W6        30.19R                  
ORANGE         LGT RAIN  63  62  97 E5        30.17S                  
SPRINGFIELD    CLOUDY    64  64 100 E5        30.13S                  
WESTFIELD      LGT RAIN  65  65 100 CALM      30.16R                  
NORTH ADAMS    CLOUDY    62  60  93 CALM      30.17R                  
PITTSFIELD     CLOUDY    61  59  93 CALM      30.15F                  
$$
 
RIZALL-161100-
RHODE ISLAND
  
CITY           SKY/WX    TMP DP  RH WIND       PRES   REMARKS
PROVIDENCE     TSTM      71  67  87 N10       30.13R                  
NEWPORT        LGT RAIN  71  71 100 NW3       30.10R FOG              
BLOCK ISLAND   CLOUDY    71  69  93 SW7       30.11S                  
SMITHFIELD     LGT RAIN  67  66  97 N8        30.16R                  
WESTERLY       LGT RAIN  68  68 100 N12       30.13R                  
$$
 
CTZALL-161100-
CONNECTICUT
  
CITY           SKY/WX    TMP DP  RH WIND       PRES   REMARKS
BRADLEY INTL   CLOUDY    65  64  97 N8        30.14F                  
HARTFORD       CLOUDY    67  64  90 CALM      30.12F                  
BRIDGEPORT     CLOUDY    71  63  75 NE7       30.11R                  
DANBURY        CLOUDY    67  63  87 E6        30.14R                  
GROTON         CLOUDY    70  65  84 N13       30.12R                  
NEW HAVEN      CLOUDY    72  65  78 N8        30.11S                  
CHESTER        MOCLDY    68  64  88 NE8G15    30.13S                  
MERIDEN        CLOUDY    68  63  84 NW7       30.12F                  
WILLIMANTIC    LGT RAIN  65  64  97 E6        30.13S                  
OXFORD         LGT RAIN  64  62  93 N7        30.15R                  
$$

MEZ002-015-021-024-NHZ003-005-008-011-012-014-VTZ005-008-161100-
NORTHERN NEW ENGLAND
  
CITY           SKY/WX    TMP DP  RH WIND       PRES   REMARKS
PORTLAND ME    CLOUDY    65  64  97 N6        30.16R                  
BANGOR ME      CLOUDY    59  56  89 NW5       30.17R                  
CONCORD NH     NOT AVBL                                               
MANCHESTER NH  LGT RAIN  67  63  87 N8        30.14R                  
NASHUA NH      LGT RAIN  65  65 100 W6        30.17R                  
PORTSMOUTH NH  LGT RAIN  66  64  95 CALM      30.17R                  
JAFFREY NH     CLOUDY    63  63 100 CALM      30.18R                  
KEENE NH       CLOUDY    63  63 100 CALM      30.18R                  
BURLINGTON VT  FOG       56  55  97 CALM      30.21R VSB 1            
MT. WASHINGTON MOCLDY    45  32  61 NW24        N/A                   
$$

NYZ052-076-161100-
EASTERN NEW YORK
  
CITY           SKY/WX    TMP DP  RH WIND       PRES   REMARKS
ALBANY         CLOUDY    57  57 100 N5        30.17R                  
NEW YORK CITY  CLOUDY    73  61  65 NE8       30.10R                  
$$
 
ANZALL-161100-
MARINE OBSERVATIONS
  
STATION/POSITION TIME  TEMP    WIND        PRES    VSBY  WAVE
                       AIR SEA DIR/SP/G                  HT/PER
                 (UTC) (F)     (DEG/KT/KT) (MB)    (MI)  (FT/S)
BOSTON BUOY      0940      66  350/  8/ 12 1020.9R
BUZZARDS BAY     0900          210/ 10/ 11 1020.1R
NANTUCKET SOUND  0940   73 72  210/ 10/ 12 1019.7R
MASS BAY-STELLWA 0904   66      70/  2/  4 1019.4R  1 7/8  1/ 5
ISLE OF SHOALS   0900   67     300/ 12/ 12 1019.4R
S OF BLOCK IS    0926      69                N/A           4/ 6
$$

......................KEY.........................
  SKY/WX - SKY CONDITION/PRESENT WEATHER
  TMP    - TEMPERATURE IN FAHRENHEIT
  DWPT   - DEWPOINT IN FAHRENHEIT
  RH     - RELATIVE HUMIDITY IN PERCENT
  WIND   - DIRECTION AND SPEED IN MPH
  PRES   - MEAN SEA LEVEL PRESSURE IN INCHES OF HG
  WCI    - WIND CHILL INDEX
  VSB    - VISIBILITY IN MILES
  HX     - HEAT INDEX
  TC     - TEMPERATURE IN CELSIUS
  VRB    - VARIABLE WIND DIRECTION
  N/A    - NOT AVAILABLE
  
      

Other recent Regional Weather Roundups

Wed Sep 22, 1:04pm

Wed Sep 22, 12:05pm

Wed Sep 22, 11:04am

Wed Sep 22, 10:04am

Wed Sep 22, 9:04am

Wed Sep 22, 8:04am

Wed Sep 22, 7:04am

Wed Sep 22, 6:04am

Wed Sep 22, 5:04am

Wed Sep 22, 4:04am

Wed Sep 22, 3:04am

Wed Sep 22, 2:04am

Wed Sep 22, 1:04am

Wed Sep 22, 12:04am

Tue Sep 21, 11:04pm

Tue Sep 21, 10:04pm

Tue Sep 21, 9:04pm

Tue Sep 21, 8:04pm

Tue Sep 21, 7:04pm

Tue Sep 21, 6:04pm

Tue Sep 21, 5:04pm

Tue Sep 21, 4:04pm

Tue Sep 21, 3:04pm

Tue Sep 21, 2:04pm

Tue Sep 21, 1:04pm

Tue Sep 21, 12:04pm

Tue Sep 21, 11:04am

Tue Sep 21, 10:04am

Tue Sep 21, 9:04am

Tue Sep 21, 8:04am

Tue Sep 21, 7:04am

Tue Sep 21, 6:04am

Tue Sep 21, 5:04am

Tue Sep 21, 4:04am

Tue Sep 21, 3:04am

Tue Sep 21, 2:04am

Tue Sep 21, 1:04am

Tue Sep 21, 12:04am

Mon Sep 20, 11:04pm

Mon Sep 20, 10:04pm

Mon Sep 20, 9:04pm

Mon Sep 20, 8:04pm

Mon Sep 20, 7:04pm

Mon Sep 20, 6:04pm

Mon Sep 20, 5:04pm

Mon Sep 20, 4:04pm

Mon Sep 20, 3:04pm

Mon Sep 20, 2:04pm

Mon Sep 20, 1:04pm

Mon Sep 20, 12:04pm

Mon Sep 20, 11:04am

Mon Sep 20, 10:04am

Mon Sep 20, 9:04am

Mon Sep 20, 7:04am

Mon Sep 20, 6:04am

Mon Sep 20, 5:04am

Mon Sep 20, 4:04am

Mon Sep 20, 3:04am

Mon Sep 20, 2:04am

Mon Sep 20, 1:04am

Mon Sep 20, 12:04am

Sun Sep 19, 11:04pm

Sun Sep 19, 10:04pm

Sun Sep 19, 9:04pm

Sun Sep 19, 8:04pm

Sun Sep 19, 7:04pm

Sun Sep 19, 6:04pm

Sun Sep 19, 5:04pm

Sun Sep 19, 4:04pm

Sun Sep 19, 3:04pm

Sun Sep 19, 2:05pm

Sun Sep 19, 1:04pm

Sun Sep 19, 12:04pm

Sun Sep 19, 11:04am

Sun Sep 19, 10:05am

Sun Sep 19, 9:04am

Sun Sep 19, 8:04am

Sun Sep 19, 7:04am

Sun Sep 19, 6:04am

Sun Sep 19, 5:04am

Sun Sep 19, 4:04am

Sun Sep 19, 3:04am

Sun Sep 19, 2:04am

Sun Sep 19, 1:04am

Sun Sep 19, 12:04am

Sat Sep 18, 11:05pm

Sat Sep 18, 10:04pm

Sat Sep 18, 9:04pm

Sat Sep 18, 8:04pm

Sat Sep 18, 7:04pm

Sat Sep 18, 6:04pm

Sat Sep 18, 5:04pm

Sat Sep 18, 4:04pm

Sat Sep 18, 3:04pm

Sat Sep 18, 2:04pm

Sat Sep 18, 1:04pm

Sat Sep 18, 12:04pm

Sat Sep 18, 11:04am

Sat Sep 18, 10:04am

Sat Sep 18, 9:04am

Sat Sep 18, 8:04am

Sat Sep 18, 7:04am

Sat Sep 18, 6:04am

Sat Sep 18, 5:04am

Sat Sep 18, 4:04am

Sat Sep 18, 3:04am

Sat Sep 18, 2:04am

Sat Sep 18, 1:04am

Sat Sep 18, 12:04am

Fri Sep 17, 11:04pm

Fri Sep 17, 10:04pm

Fri Sep 17, 9:04pm

Fri Sep 17, 8:04pm

Fri Sep 17, 7:04pm

Fri Sep 17, 6:04pm

Fri Sep 17, 5:04pm

Fri Sep 17, 4:04pm

Fri Sep 17, 3:04pm

Fri Sep 17, 2:04pm

Fri Sep 17, 1:04pm

Fri Sep 17, 12:05pm

Fri Sep 17, 11:04am

Fri Sep 17, 10:04am

Fri Sep 17, 9:04am

Fri Sep 17, 8:04am

Fri Sep 17, 7:04am

Fri Sep 17, 6:04am

Fri Sep 17, 5:04am

Fri Sep 17, 4:04am

Fri Sep 17, 3:04am

Fri Sep 17, 2:04am

Fri Sep 17, 1:04am

Fri Sep 17, 12:04am

Thu Sep 16, 11:04pm

Thu Sep 16, 10:04pm

Thu Sep 16, 9:04pm

Thu Sep 16, 8:04pm

Thu Sep 16, 7:04pm

Thu Sep 16, 6:04pm

Thu Sep 16, 5:04pm

Thu Sep 16, 4:04pm

Thu Sep 16, 3:04pm

Thu Sep 16, 2:04pm

Thu Sep 16, 1:05pm

Thu Sep 16, 12:04pm

Thu Sep 16, 11:05am

Thu Sep 16, 10:05am

Thu Sep 16, 9:04am

Thu Sep 16, 8:04am

Thu Sep 16, 7:04am

Thu Sep 16, 5:04am

Thu Sep 16, 4:04am

Thu Sep 16, 3:04am

Thu Sep 16, 2:04am

Thu Sep 16, 1:04am

Thu Sep 16, 12:04am

Wed Sep 15, 11:04pm

Wed Sep 15, 10:04pm

Wed Sep 15, 9:04pm

Wed Sep 15, 8:04pm

Wed Sep 15, 7:04pm

Wed Sep 15, 6:04pm

Wed Sep 15, 5:05pm

Wed Sep 15, 4:04pm

Wed Sep 15, 3:04pm

Wed Sep 15, 2:04pm

Meta data:

ID: 223132e9-4390-4491-b1ea-e23331b8589a
Link: https://api.weather.gov/products/223132e9-4390-4491-b1ea-e23331b8589a